Flag for Germany Weather past 2 weeks in Waren (Müritz), Mecklenburg-Western Pomerania, Germany

Now
59 °F

Partly sunny.


Feels Like: 58 °F
Forecast: 46 / 58 °F
Wind: 8 mph from East

Location: Laage

Current Time: May 29, 2015 at 9:10:58 PM

Latest Report: May 29, 2015 at 8:20 PM


Visibility: N/A

Pressure: 29.68 "Hg

Humidity: 51%

Dew point: 41 °F

Location of Waren (Müritz)Location

Historic Weather in Waren (Müritz) — Graph

°F

Waren (Müritz) temperature yesterday

Maximum temperature yesterday: 63 °F (at 12:20 PM)
Minimum temperature yesterday: 43 °F (at 2:20 AM)
Average temperature yesterday: 52 °F

Past Weeks' High & Low Weather Summary

 TemperatureHumidityPressure
High64 °F (May 22, 4:20 PM)100% (May 15, 1:20 AM)30.27 "Hg (May 15, 1:20 AM)
Low37 °F (May 21, 5:20 AM)42% (May 29, 5:20 PM)29.56 "Hg (May 19, 1:20 AM)
Average51 °F76%29.99 "Hg
* Reported May 14 7:20 PM — May 29 7:20 PM, Waren (Müritz), Weather by CustomWeather, © 2015

Note: Actual official high and low records may vary slightly from our data, if they occured in-between our weather recording intervals... More about our weather records

Advertising

Waren (Müritz) weather history for previous 24 hours

 ConditionsComfort  
Time TempWeatherWind HumidityBarometerVisibility
7:20 PM
Fri, May 29
59 °FPartly sunny.9 mph48%29.71 "HgN/A
6:20 PM63 °FBroken clouds.8 mph42%29.74 "HgN/A
5:20 PM63 °FPartly sunny.9 mph42%29.77 "HgN/A
4:20 PM61 °FBroken clouds.8 mph45%29.77 "HgN/A
3:20 PM61 °FBroken clouds.6 mph45%29.80 "HgN/A
2:20 PM59 °FPartly sunny.8 mph48%29.83 "HgN/A
1:57 PM59 °FPartly sunny.7 mph48%29.83 "HgN/A
1:20 PM57 °FBroken clouds.8 mph51%29.86 "HgN/A
12:20 PM57 °FPartly sunny.10 mph51%29.86 "HgN/A
11:20 AM55 °FPartly sunny.9 mph55%29.89 "HgN/A
10:20 AM55 °FBroken clouds.9 mph59%29.89 "HgN/A
9:20 AM52 °FScattered clouds.7 mph72%29.89 "HgN/A
8:20 AM50 °FPassing clouds.7 mph82%29.89 "HgN/A
7:20 AM46 °FPassing clouds.7 mph87%29.89 "HgN/A
6:20 AM43 °FQuite cool.6 mph93%29.89 "HgN/A
5:20 AM41 °FFog.3 mph100%29.89 "HgN/A
4:20 AM43 °FFog.3 mph93%29.89 "HgN/A
3:20 AM43 °FQuite cool.3 mph93%29.89 "HgN/A
2:20 AM45 °FQuite cool.8 mph93%29.89 "HgN/A
1:20 AM46 °FCool.8 mph87%29.89 "HgN/A
12:20 AM48 °FCool.8 mph87%29.89 "HgN/A
11:20 PM
Thu, May 28
48 °FCool.8 mph94%29.86 "HgN/A
10:20 PM48 °FPassing clouds.9 mph100%29.86 "HgN/A
9:20 PM50 °FPassing clouds.6 mph94%29.86 "HgN/A
Weather by CustomWeather, © 2015

See weather overviewHow to use our weather pages